GW1213 Weather Reports


time (UTC)temp
F
wind
direction
speed
knots
gust
knots
rain 1hr
in
rain 24hr
in
rain mn
in
humidity
%
barometer
mb
20260906212541 81 32 0.0 3.5 0.00 0.01 0.01 52 1013.5
20260906212039 81 71 0.9 3.5 0.00 0.01 0.01 51 1013.6
20260906211558 81 25 0.9 3.5 0.00 0.01 0.01 51 1013.6
20260906211040 81 0 0.9 3.5 0.00 0.01 0.01 50 1013.7
20260906210538 82 0 0.9 4.3 0.00 0.01 0.01 51 1013.7
20260906210113 82 45 1.7 4.3 0.00 0.01 0.01 51 1013.8
20260906205538 82 74 0.0 4.3 0.00 0.01 0.01 51 1013.8
20260906205037 82 0 0.9 5.2 0.00 0.01 0.01 50 1013.7
20260906204601 82 53 1.7 5.2 0.00 0.01 0.01 51 1013.6
20260906204039 82 0 0.9 5.2 0.00 0.01 0.01 51 1013.7
20260906203539 82 57 0.0 2.6 0.00 0.01 0.01 54 1013.7
20260906203059 82 0 0.0 4.3 0.00 0.01 0.01 56 1013.8
20260906202538 82 0 0.9 4.3 0.00 0.01 0.01 54 1013.7
20260906202039 82 0 0.9 3.5 0.00 0.01 0.01 55 1013.7
20260906201637 82 0 0.9 7.0 0.00 0.01 0.01 54 1013.7
20260906201037 82 10 1.7 7.0 0.00 0.01 0.01 54 1013.6
20260906200538 81 0 0.0 6.1 0.00 0.01 0.01 55 1013.6
20260906200057 81 78 2.6 6.1 0.00 0.01 0.01 55 1013.6
20260906195538 80 78 0.0 2.6 0.00 0.01 0.01 58 1013.5
20260906195038 80 0 0.0 4.3 0.00 0.01 0.01 59 1013.5
20260906194609 80 0 0.0 4.3 0.00 0.01 0.01 57 1013.6
20260906194036 81 90 1.7 6.1 0.00 0.01 0.01 56 1013.6
20260906193538 81 306 1.7 6.1 0.00 0.01 0.01 54 1013.6
20260906193102 82 345 1.7 5.2 0.00 0.01 0.01 56 1013.7
20260906192538 82 0 0.0 2.6 0.00 0.01 0.01 57 1013.6
20260906192037 81 0 0.0 2.6 0.00 0.01 0.01 58 1013.6
20260906191611 81 340 0.0 4.3 0.00 0.01 0.01 57 1013.6
20260906191039 81 60 0.9 4.3 0.00 0.01 0.01 58 1013.6
20260906190537 81 32 0.9 4.3 0.00 0.01 0.01 59 1013.6
20260906190056 81 81 0.9 6.1 0.00 0.01 0.01 58 1013.6
20260906185535 81 326 2.6 6.1 0.00 0.01 0.01 57 1013.7
20260906185038 81 44 1.7 5.2 0.00 0.01 0.01 59 1013.8
20260906184605 81 342 0.0 1.7 0.00 0.01 0.01 60 1013.9
20260906184037 81 0 0.0 1.7 0.00 0.01 0.01 59 1013.8
20260906183539 80 348 0.0 2.6 0.00 0.01 0.01 58 1013.9
20260906183105 80 352 0.9 6.1 0.00 0.01 0.01 61 1013.9
20260906182541 80 35 0.9 8.7 0.00 0.01 0.01 60 1013.8
20260906182042 80 37 2.6 8.7 0.00 0.01 0.01 57 1013.8
20260906181633 80 44 0.9 4.3 0.00 0.01 0.01 58 1013.9
20260906181035 81 342 1.7 4.3 0.00 0.01 0.01 58 1013.9
20260906180536 82 333 0.9 3.5 0.00 0.01 0.01 57 1014.0
20260906180107 82 0 0.0 3.5 0.00 0.01 0.01 59 1013.9
20260906175538 81 9 0.9 3.5 0.00 0.03 0.01 57 1013.9
20260906175037 81 0 1.7 3.5 0.00 0.03 0.01 58 1014.0
20260906174611 80 352 0.9 7.0 0.00 0.03 0.01 59 1014.0
20260906174038 81 327 0.9 7.0 0.00 0.03 0.01 59 1014.0
20260906173536 81 16 1.7 7.0 0.00 0.03 0.01 59 1013.9
20260906173105 80 344 0.0 7.8 0.00 0.03 0.01 61 1013.9
20260906172536 80 76 2.6 7.8 0.00 0.03 0.01 57 1014.0
20260906172037 81 48 1.7 5.2 0.00 0.03 0.01 60 1014.1
20260906171559 81 28 0.9 3.5 0.00 0.03 0.01 57 1014.1
20260906171035 81 329 0.0 3.5 0.00 0.03 0.01 60 1014.1
20260906170537 81 0 0.0 3.5 0.00 0.03 0.01 57 1014.2
20260906170055 81 11 1.7 3.5 0.00 0.03 0.01 56 1014.3
20260906165538 82 325 1.7 3.5 0.00 0.19 0.01 57 1014.2
20260906165036 81 347 0.9 2.6 0.00 0.19 0.01 58 1014.2
20260906164602 81 312 0.9 2.6 0.00 0.19 0.01 59 1014.3
20260906164038 81 0 0.9 3.5 0.00 0.19 0.01 59 1014.3
20260906163534 81 5 0.9 3.5 0.00 0.19 0.01 60 1014.3
20260906163105 81 0 0.0 6.1 0.00 0.19 0.01 60 1014.3
20260906162534 81 0 0.0 6.1 0.00 0.19 0.01 59 1014.4
20260906162115 81 79 0.0 3.5 0.00 0.19 0.01 60 1014.4
20260906161606 81 0 0.0 0.0 0.00 0.19 0.01 63 1014.5
20260906161036 80 0 0.0 1.7 0.00 0.19 0.01 62 1014.5
20260906160539 80 0 0.0 4.3 0.00 0.19 0.01 64 1014.5
20260906160055 79 302 1.7 4.3 0.00 0.19 0.01 63 1014.6
20260906155539 79 344 0.0 4.3 0.00 0.19 0.01 63 1014.6
20260906155037 79 0 0.9 5.2 0.00 0.19 0.01 65 1014.6
20260906154602 79 55 1.7 5.2 0.00 0.19 0.01 64 1014.7
20260906154039 79 71 1.7 4.3 0.00 0.19 0.01 61 1014.7
20260906153537 79 319 0.0 2.6 0.00 0.19 0.01 66 1014.8
20260906153102 79 318 0.0 2.6 0.00 0.19 0.01 62 1014.7
20260906152536 78 340 0.9 2.6 0.00 0.19 0.01 65 1014.6
20260906152040 78 0 0.0 2.6 0.00 0.19 0.01 67 1014.6
20260906151556 78 17 0.9 3.5 0.00 0.19 0.01 66 1014.6
20260906151038 77 10 0.0 3.5 0.00 0.19 0.01 66 1014.6
20260906150537 77 76 0.9 3.5 0.00 0.19 0.01 68 1014.6
20260906150109 77 0 0.9 3.5 0.00 0.19 0.01 67 1014.6
20260906145534 77 0 0.9 5.2 0.00 0.19 0.01 69 1014.7
20260906145038 76 0 1.7 5.2 0.00 0.19 0.01 69 1014.7
20260906144600 76 0 0.0 0.0 0.00 0.19 0.01 70 1014.6
20260906144041 76 0 0.0 0.0 0.00 0.19 0.01 70 1014.6
20260906143535 76 0 0.0 1.7 0.00 0.19 0.01 73 1014.6
20260906143058 76 0 0.0 3.5 0.00 0.19 0.01 73 1014.5
20260906142535 76 0 0.0 3.5 0.00 0.19 0.01 73 1014.6
20260906142039 75 34 0.0 1.7 0.00 0.19 0.01 73 1014.6
20260906141600 75 0 0.0 0.0 0.00 0.19 0.01 72 1014.6
20260906141035 75 0 0.0 0.0 0.00 0.19 0.01 73 1014.6
20260906140537 75 0 0.0 0.0 0.00 0.19 0.01 75 1014.6
20260906140108 75 0 0.0 0.0 0.00 0.19 0.01 75 1014.6
20260906135535 74 0 0.0 0.9 0.00 0.19 0.01 75 1014.5
20260906135035 74 0 0.0 0.9 0.00 0.19 0.01 75 1014.5
20260906134615 74 0 0.0 1.7 0.00 0.19 0.01 75 1014.5
20260906134035 74 9 0.0 3.5 0.00 0.19 0.01 76 1014.6
20260906133537 74 0 0.9 3.5 0.00 0.19 0.01 77 1014.5
20260906133113 73 0 0.0 1.7 0.00 0.19 0.01 77 1014.6
20260906132542 73 0 0.0 1.7 0.00 0.19 0.01 78 1014.6
20260906132037 73 0 0.0 1.7 0.00 0.19 0.01 79 1014.4
20260906131558 73 48 0.0 1.7 0.00 0.19 0.01 80 1014.4
20260906131036 73 0 0.0 1.7 0.00 0.19 0.01 79 1014.5
20260906130538 72 0 0.0 2.6 0.00 0.19 0.01 79 1014.4
20260906130112 72 0 0.0 2.6 0.00 0.19 0.01 80 1014.4
20260906125539 72 349 0.0 1.7 0.00 0.19 0.01 80 1014.4
20260906125037 71 0 0.0 1.7 0.00 0.19 0.01 81 1014.3
20260906124608 71 88 0.0 2.6 0.00 0.19 0.01 82 1014.3
20260906124038 71 0 0.0 2.6 0.00 0.19 0.01 80 1014.4
20260906123537 71 0 0.0 1.7 0.00 0.19 0.01 81 1014.4
20260906123103 71 0 0.0 1.7 0.00 0.19 0.01 82 1014.3
20260906122538 70 0 0.0 0.0 0.00 0.19 0.01 83 1014.2
20260906122038 70 0 0.0 0.0 0.00 0.19 0.01 84 1014.2
20260906121620 70 0 0.0 0.0 0.00 0.19 0.01 85 1014.1
20260906121037 69 0 0.0 0.0 0.00 0.19 0.01 86 1014.1
20260906120537 68 0 0.0 0.0 0.00 0.19 0.01 87 1014.0
20260906115535 67 0 0.0 0.0 0.00 0.19 0.01 90 1014.0
20260906115035 67 0 0.0 0.0 0.00 0.19 0.01 91 1014.0
20260906114622 66 0 0.0 0.0 0.00 0.19 0.01 92 1013.9
20260906114039 66 0 0.0 0.0 0.00 0.19 0.01 93 1013.8
20260906113536 66 0 0.0 0.0 0.00 0.19 0.01 93 1013.7
20260906113104 65 0 0.0 0.0 0.00 0.19 0.01 93 1013.7
20260906112535 65 0 0.0 0.0 0.00 0.19 0.01 93 1013.6
20260906112038 65 0 0.0 0.0 0.00 0.19 0.01 93 1013.5
20260906111603 65 0 0.0 0.0 0.00 0.19 0.01 93 1013.5
20260906111035 65 0 0.0 0.0 0.00 0.19 0.01 93 1013.4
20260906110536 65 0 0.0 0.0 0.00 0.19 0.01 94 1013.3
20260906110058 65 0 0.0 0.0 0.00 0.19 0.01 94 1013.3
20260906105541 65 0 0.0 0.0 0.00 0.19 0.01 94 1013.2
20260906105039 65 0 0.0 0.0 0.00 0.19 0.01 94 1013.1
20260906104556 65 0 0.0 0.0 0.00 0.19 0.01 95 1013.1
20260906104038 65 0 0.0 0.0 0.00 0.19 0.01 95 1013.0
20260906103537 65 0 0.0 0.0 0.00 0.19 0.01 95 1013.0
20260906103102 65 0 0.0 0.9 0.00 0.19 0.01 95 1013.0
20260906102538 65 0 0.0 1.7 0.00 0.19 0.01 95 1012.9
20260906102041 65 0 0.0 1.7 0.00 0.19 0.01 95 1012.7
20260906101603 65 0 0.0 1.7 0.00 0.19 0.01 95 1012.5
20260906101039 66 0 0.0 1.7 0.00 0.19 0.01 96 1012.4
20260906100537 66 0 0.0 0.0 0.00 0.19 0.01 96 1012.5
20260906100058 66 0 0.0 0.0 0.00 0.19 0.01 96 1012.4
20260906095535 66 0 0.0 0.0 0.01 0.19 0.01 96 1012.5
20260906095038 66 0 0.0 0.0 0.01 0.19 0.01 96 1012.5
20260906094601 66 0 0.0 0.0 0.01 0.19 0.01 96 1012.5
20260906094038 66 0 0.0 0.0 0.01 0.19 0.01 96 1012.6
20260906093538 66 0 0.0 0.0 0.01 0.19 0.01 96 1012.7
20260906093108 67 0 0.0 0.0 0.01 0.19 0.01 96 1012.5
20260906092538 67 0 0.0 0.0 0.01 0.19 0.01 96 1012.4
20260906092036 67 0 0.0 0.0 0.01 0.19 0.01 96 1012.4
20260906091604 67 0 0.0 0.0 0.01 0.19 0.01 96 1012.2
20260906091038 67 0 0.0 0.0 0.01 0.19 0.01 96 1012.1
20260906090538 67 0 0.0 0.0 0.01 0.19 0.01 96 1012.0
20260906090112 67 0 0.0 0.0 0.01 0.19 0.01 96 1012.0
20260906085538 67 0 0.0 0.0 0.00 0.18 0.00 96 1012.0
20260906085037 67 0 0.0 0.0 0.00 0.18 0.00 96 1011.9
20260906084601 68 0 0.0 0.0 0.00 0.18 0.00 96 1011.9
20260906084035 68 0 0.0 0.0 0.00 0.18 0.00 96 1011.9
20260906083538 68 0 0.0 0.0 0.00 0.18 0.00 96 1011.8
20260906083102 68 0 0.0 0.0 0.00 0.18 0.00 96 1011.9
20260906082538 68 0 0.0 0.0 0.00 0.18 0.00 96 1011.8
20260906082038 68 0 0.0 0.0 0.00 0.18 0.00 96 1011.7
20260906081601 68 0 0.0 0.0 0.00 0.18 0.00 96 1011.7
20260906081035 68 0 0.0 0.0 0.00 0.18 0.00 96 1011.6
20260906080536 69 0 0.0 0.0 0.00 0.18 0.00 96 1011.5
20260906080106 69 0 0.0 0.0 0.00 0.18 0.00 97 1011.5
20260906075535 69 0 0.0 0.0 0.00 0.18 0.00 97 1011.4
20260906075036 69 0 0.0 0.0 0.00 0.18 0.00 96 1011.4
20260906074601 69 0 0.0 0.0 0.00 0.18 0.00 96 1011.4
20260906074038 69 0 0.0 0.0 0.00 0.18 0.00 96 1011.5
20260906073537 69 0 0.0 0.0 0.00 0.18 0.00 96 1011.5
20260906073101 69 0 0.0 0.0 0.00 0.18 0.00 96 1011.5
20260906072536 69 0 0.0 0.0 0.00 0.18 0.00 96 1011.4
20260906072035 69 0 0.0 0.0 0.00 0.18 0.00 97 1011.4
20260906071611 69 0 0.0 0.0 0.00 0.18 0.00 97 1011.4
20260906071035 69 0 0.0 0.0 0.00 0.18 0.00 97 1011.4
20260906070534 69 0 0.0 0.0 0.00 0.18 0.00 97 1011.5
20260906070109 69 0 0.0 0.0 0.00 0.18 0.00 97 1011.4
20260906065541 69 0 0.0 0.0 0.00 0.18 0.00 96 1011.5
20260906065037 70 0 0.0 0.0 0.00 0.18 0.00 96 1011.6
20260906064603 70 0 0.0 0.0 0.00 0.18 0.00 96 1011.5
20260906064038 70 0 0.0 0.0 0.00 0.18 0.00 97 1011.5
20260906063540 70 0 0.0 0.0 0.00 0.18 0.00 96 1011.6
20260906063102 70 0 0.0 0.0 0.00 0.18 0.00 96 1011.5
20260906062538 70 0 0.0 0.0 0.00 0.18 0.00 96 1011.6
20260906062041 70 0 0.0 0.0 0.00 0.18 0.00 96 1011.6
20260906061605 70 0 0.0 0.0 0.00 0.18 0.00 96 1011.5
20260906061035 70 0 0.0 0.0 0.00 0.18 0.00 96 1011.5
20260906060535 70 0 0.0 0.0 0.00 0.18 0.00 96 1011.4
20260906060149 70 0 0.0 0.0 0.00 0.18 0.00 97 1011.4
20260906055538 70 0 0.0 0.0 0.00 0.18 0.00 97 1011.4
20260906055038 70 0 0.0 0.0 0.00 0.18 0.00 97 1011.4
20260906054616 70 0 0.0 0.0 0.00 0.18 0.00 97 1011.5
20260906054037 70 0 0.0 0.0 0.00 0.18 0.00 96 1011.5
20260906053540 70 0 0.0 0.0 0.00 0.18 0.00 96 1011.6
20260906053102 70 0 0.0 0.0 0.00 0.18 0.00 96 1011.7
20260906052536 70 0 0.0 0.0 0.00 0.18 0.00 96 1011.8
20260906052037 70 0 0.0 0.0 0.00 0.18 0.00 96 1011.9
20260906051559 70 0 0.0 0.0 0.00 0.18 0.00 96 1011.8
20260906051036 70 0 0.0 0.0 0.00 0.18 0.00 96 1011.9
20260906050535 71 0 0.0 0.0 0.00 0.18 0.00 96 1011.8
20260906050113 71 0 0.0 0.0 0.00 0.18 0.00 96 1011.7
20260906045535 71 0 0.0 0.0 0.00 0.18 0.00 96 1011.7
20260906045038 71 0 0.0 0.0 0.00 0.18 0.00 96 1011.7
20260906044602 71 0 0.0 0.0 0.00 0.18 0.00 96 1011.8
20260906044040 71 0 0.0 0.0 0.00 0.18 0.00 96 1011.9
20260906043539 71 0 0.0 0.0 0.00 0.18 0.00 96 1011.9
20260906043109 71 0 0.0 0.0 0.00 0.18 0.00 96 1011.9
20260906042536 71 0 0.0 0.0 0.00 0.18 0.00 96 1012.0
20260906042035 71 0 0.0 0.0 0.00 0.18 0.00 96 1012.0
20260906041559 71 0 0.0 0.0 0.00 0.18 0.00 96 1011.9
20260906041036 71 0 0.0 0.0 0.00 0.18 0.00 96 1012.0
20260906040538 71 0 0.0 0.0 0.00 0.18 0.00 96 1011.9
20260906040111 71 0 0.0 0.0 0.00 0.18 0.00 96 1011.9
20260906035616 72 0 0.0 0.0 0.00 0.18 0.18 96 1012.0
20260906035038 72 0 0.0 0.0 0.00 0.18 0.18 96 1012.0
20260906034607 72 0 0.0 0.0 0.00 0.18 0.18 96 1012.1
20260906034035 72 0 0.0 0.0 0.00 0.18 0.18 96 1012.1
20260906033535 72 0 0.0 0.0 0.00 0.18 0.18 96 1012.0
20260906033059 72 0 0.0 0.0 0.00 0.18 0.18 96 1012.0
20260906032535 72 0 0.0 0.0 0.00 0.18 0.18 96 1012.0
20260906032035 72 0 0.0 0.0 0.00 0.18 0.18 96 1012.0
20260906031620 72 0 0.0 0.0 0.00 0.18 0.18 96 1011.9
20260906031035 72 0 0.0 0.0 0.00 0.18 0.18 96 1011.9
20260906030537 72 0 0.0 1.7 0.00 0.18 0.18 96 1012.0
20260906030109 72 0 0.0 2.6 0.00 0.18 0.18 96 1012.1
20260906025538 72 0 0.9 2.6 0.00 0.18 0.18 96 1012.0
20260906025036 72 57 0.0 0.0 0.00 0.18 0.18 96 1011.8
20260906024605 72 0 0.0 0.0 0.00 0.18 0.18 96 1011.6
20260906024036 72 0 0.0 0.0 0.00 0.18 0.18 96 1011.8
20260906023538 72 0 0.0 0.0 0.00 0.18 0.18 95 1011.8
20260906023110 72 0 0.0 0.0 0.00 0.18 0.18 96 1011.8
20260906022539 72 0 0.0 0.0 0.00 0.18 0.18 95 1011.9
20260906022035 72 0 0.0 0.0 0.00 0.18 0.18 95 1011.7
20260906021557 72 0 0.0 0.0 0.00 0.18 0.18 95 1011.8
20260906021040 72 0 0.0 0.0 0.00 0.18 0.18 95 1011.7
20260906020538 73 0 0.0 0.0 0.00 0.18 0.18 95 1011.6
20260906020109 73 0 0.0 0.0 0.00 0.18 0.18 95 1011.6
20260906015539 73 0 0.0 0.0 0.00 0.18 0.18 95 1011.5
20260906015035 73 0 0.0 0.0 0.00 0.18 0.18 95 1011.5
20260906014600 73 0 0.0 0.0 0.00 0.18 0.18 95 1011.5
20260906014036 73 0 0.0 0.0 0.00 0.18 0.18 95 1011.5
20260906013537 73 0 0.0 0.0 0.00 0.18 0.18 95 1011.4
20260906013059 73 0 0.0 0.0 0.00 0.18 0.18 95 1011.4
20260906012537 73 0 0.0 0.0 0.00 0.18 0.18 95 1011.3
20260906012039 73 0 0.0 0.0 0.00 0.18 0.18 95 1011.1
20260906011607 73 0 0.0 0.0 0.00 0.18 0.18 95 1011.0
20260906011038 73 0 0.0 0.0 0.00 0.18 0.18 95 1010.9
20260906010537 73 0 0.0 0.0 0.00 0.18 0.18 94 1010.9
20260906010104 74 0 0.0 0.0 0.00 0.18 0.18 94 1010.8
20260906005537 74 0 0.0 0.0 0.00 0.18 0.18 94 1010.8
20260906005038 74 0 0.0 0.0 0.00 0.18 0.18 94 1010.8
20260906004608 74 0 0.0 0.0 0.00 0.18 0.18 94 1010.8
20260906004038 74 0 0.0 0.0 0.00 0.18 0.18 94 1010.8
20260906003538 74 0 0.0 0.0 0.00 0.18 0.18 94 1010.7
20260906003101 74 0 0.0 0.0 0.00 0.18 0.18 94 1010.6
20260906002538 74 0 0.0 0.0 0.00 0.18 0.18 94 1010.6
20260906002038 74 0 0.0 0.0 0.00 0.18 0.18 94 1010.5
20260906001559 74 0 0.0 0.0 0.00 0.18 0.18 94 1010.4
20260906001034 74 0 0.0 0.0 0.00 0.18 0.18 94 1010.4
20260906000537 75 0 0.0 0.0 0.00 0.18 0.18 93 1010.4
20260906000110 75 0 0.0 0.0 0.00 0.18 0.18 93 1010.3
20260905235541 75 0 0.0 0.0 0.00 0.18 0.18 92 1010.4
20260905235034 75 0 0.0 0.0 0.00 0.18 0.18 92 1010.4
20260905234601 75 0 0.0 0.0 0.00 0.18 0.18 92 1010.4
20260905234039 75 0 0.0 0.0 0.00 0.18 0.18 92 1010.4
20260905233538 75 0 0.0 0.0 0.00 0.18 0.18 92 1010.5
20260905233103 76 0 0.0 0.0 0.00 0.18 0.18 91 1010.5
20260905232537 76 0 0.0 0.0 0.00 0.18 0.18 91 1010.6
20260905232037 76 0 0.0 0.0 0.00 0.18 0.18 91 1010.4
20260905231618 76 0 0.0 0.0 0.00 0.18 0.18 90 1010.4
20260905231040 77 0 0.0 0.0 0.00 0.18 0.18 89 1010.4
20260905230538 77 0 0.0 0.0 0.00 0.18 0.18 88 1010.4
20260905230107 77 0 0.0 0.0 0.00 0.18 0.18 87 1010.2
20260905225536 78 0 0.0 0.0 0.00 0.18 0.18 87 1010.2
20260905225037 78 0 0.0 0.0 0.00 0.18 0.18 86 1010.2
20260905224602 78 0 0.0 0.0 0.00 0.18 0.18 86 1010.4
20260905224041 79 0 0.0 0.0 0.00 0.18 0.18 84 1010.3
20260905223536 79 0 0.0 0.0 0.00 0.18 0.18 82 1010.3
20260905223102 79 0 0.0 0.0 0.00 0.18 0.18 82 1010.3
20260905222536 79 0 0.0 0.0 0.00 0.18 0.18 82 1010.3
20260905222036 79 0 0.0 2.6 0.00 0.18 0.18 82 1010.1
20260905221619 79 0 0.0 3.5 0.00 0.18 0.18 82 1010.2
20260905221039 79 0 0.9 3.5 0.00 0.18 0.18 81 1010.2
20260905220537 79 0 0.0 0.0 0.00 0.18 0.18 83 1010.1
20260905220058 78 0 0.0 0.9 0.00 0.18 0.18 82 1010.1
20260905215537 78 0 0.0 2.6 0.00 0.18 0.18 83 1010.0
20260905215037 78 0 0.9 2.6 0.00 0.18 0.18 82 1009.8
20260905214609 78 0 0.0 0.9 0.00 0.18 0.18 84 1009.8
20260905214038 78 0 0.0 0.9 0.00 0.18 0.18 82 1010.1
20260905213538 78 0 0.0 2.6 0.00 0.18 0.18 83 1010.0
20260905213106 78 0 0.0 2.6 0.00 0.18 0.18 84 1010.0